sat.trackr.live / text

‹ back to catalog

QIANFAN-73

NORAD 63159 · 2025-046A

PAYLOAD ACTIVE UNKNOWN

§ Identity

Operator
Country
PRC
Launch date
2025-03-11
Launch site
WSC
Launch vehicle
Mass (kg)
RCS (m²)

External: N2YO · Heavens-Above · Gunter

§ Orbital elements

Epoch: 2026-09-22T20:36:41.272992Z

Period
106.59 min
Inclination
88.9639°
Eccentricity
0.0015760
Mean motion
13.51025730 rev/d
Perigee alt
1,056.8 km
Apogee alt
1,080.2 km
Semi-major
7,446.6 km
B*
7.9168e-5
RAAN
290.5189°
Arg perigee
29.8513°
Mean anomaly
330.3534°
Rev number
8,577

§ Raw data

QIANFAN-731 63159U 25046A   26265.85881103  .00000063  00000+0  79168-4 0  99992 63159  88.9639 290.5189 0015760  29.8513 330.3534 13.51025730 85775

JSON: /api/v1/satellites/63159 · /tle

For live sub-satellite position, see the globe view (requires WebGL).

§ Visibility from observer

Set your observer location to see the next 7 days of passes ≥ 10°. The values pass through the URL so the page stays shareable.

No JS? Fill the form by hand. The geolocation button needs JavaScript.